DMSP 5D-2 F13 DEB, 40568

Orbit data source: Space-Track

DMSP 5D-2 F13 DEB, 40568 is space debris in SSO originally from a launch on Fri, 24 Mar 1995 UTC launched from the Air Force Western Test Range (AFWTR). Debris objects in space refer to the collection of defunct objects orbiting the Earth. Examples of debris include non-operational satellites, rocket bodies, and fragments generated from explosions, collisions, or faulty payload assembly.

Loading next visibility...
Identifier
40568, 1995-015EB
Orbit
SSO
Country
Flag of USUS
Related business
Manufacturer
Unknown
Mission
Spacecraft
Bus & Motor
Unknown
Mass
Unknown
Launch date (UTC)
1995-03-24 (31 years ago)
Launch vehicle
Unknown
Launch site
Air Force Western Test Range (AFWTR)
Object type
Payload
Rocket body
Debris
Shape & HBR
Unknown shape, 0.1 m
Radar Cross Section
Small (<0.1 m²)

Expand to show TLE details & history
Last TLE update: 5 hours ago

TLE from 5 hours ago
0 DMSP 5D-2 F13 DEB
1 40568U 95015EB  26104.83178148  .00002488  00000-0  86636-3 0  9990
2 40568  98.8353 138.0295 0026607   5.3364 354.8100 14.36136583571195
Epoch: 2026-04-14T19:57Z
TLE epoch observation values (Epoch: 2026-04-14T19:57:45.919Z)
Latitude
-0°
Longitude
-4.41421°
Altitude
755.276 km
Speed
7.487 km/s
True Right ascension
09h 12m 07s
True Declination
0° 00' 00"
Sunlit
Object was in daylight at epoch
Visualization orbit readout
Latitude
Unknown
Longitude
Unknown
Altitude
Unknown
Speed
Unknown
Apparent Right ascension
Unknown
Apparent Declination
Unknown
Sunlit
N/A
Visualization observer readout
Local Sidereal Time
07:40:13
Azimuth
Unknown
Elevation
Unknown
Doppler factor
Unknown
Orbital elements
Apogee altitude
787.45 km
Perigee altitude
749.42 km
Semi-major axis
7,146.572 km
Eccentricity
0.00266
Inclination
98.8353°
RAAN
138.0295°
Arg. of periapsis
5.3364°
True anomaly
354.78233°
Mean anomaly
354.81°
Eccentric anomaly
354.79617°
Mean motion
3.5925 °/min
Orbital period
100.21 mins
BSTAR
0.00086636
Loading maneuver chart data...
Computing Atmospheric mass density...

Documentation

Showing up to 5 results
|